User: anonymous   Login
Location: Caltech
(34.1382°N, 118.1253°W)
Time: 10:04:41
(UTC-07:00)
Language:

CZ-2C R/B - Orbit

View from above orbital plane
View from above orbital plane
View from above satellite
View from above satellite

Ground track
Ground track

The orbit data is extracted from the following two-line orbital elements,

1 36089U 09061B   15117.15396125  .00000346  00000-0  98239-4 0  9997
2 36089 098.0747 142.3818 0081014 293.9356 105.4603 14.49423339288415
Epoch (UTC): 27 April 2015 03:41:42
Eccentricity: 0.0081014
inclination: 98.0747°
perigee height: 670 km
apogee height: 785 km
right ascension of ascending node: 142.3818°
argument of perigee: 293.9356°
revolutions per day: 14.49423339
mean anomaly at epoch: 105.4603°
orbit number at epoch: 28841

The dashed part of the orbit path shows where the satellite is in the earth's shadow,  

DLR